User: anonymous   Login
Location: Unspecified
(0.0000°N, 0.0000°E)
Time: 12:39:48
(UTC+00:00)
Language:

TELEOS 1 - Orbit

View from above orbital plane
View from above orbital plane
View from above satellite
View from above satellite

Ground track
Ground track

The orbit data is extracted from the following two-line orbital elements,

1 41169U 15077D   18201.11432162  .00000984  00000-0  19284-4 0  9992
2 41169  14.9853 160.1453 0010846  92.5264  12.3937 15.09919962143183
Epoch (UTC): 20 July 2018 02:44:37
Eccentricity: 0.0010846
inclination: 14.9853°
perigee height: 529 km
apogee height: 544 km
right ascension of ascending node: 160.1453°
argument of perigee: 92.5264°
revolutions per day: 15.09919962
mean anomaly at epoch: 12.3937°
orbit number at epoch: 14318

The dashed part of the orbit path shows where the satellite is in the earth's shadow,  

DLR